NOAA 16 DEB, 42398

Orbit data source: Space-Track

NOAA 16 DEB, 42398 is space debris in SSO originally from a launch on Thu, 21 Sep 2000 UTC launched from the Air Force Western Test Range (AFWTR). Debris objects in space refer to the collection of defunct objects orbiting the Earth. Examples of debris include non-operational satellites, rocket bodies, and fragments generated from explosions, collisions, or faulty payload assembly.

Loading next visibility...
Identifier
42398, 2000-055SS
Orbit
SSO
Country
Flag of USUS
Related business
Manufacturer
Unknown
Mission
Spacecraft
Bus & Motor
Unknown
Mass
Unknown
Launch date (UTC)
2000-09-21 (25 years ago)
Launch vehicle
Unknown
Launch site
Air Force Western Test Range (AFWTR)
Object type
Payload
Rocket body
Debris
Shape & HBR
Unknown shape, 0.1 m
Radar Cross Section
Small (<0.1 m²)

Expand to show TLE details & history
Last TLE update: 1 week ago

TLE from 1 week ago
0 NOAA 16 DEB
1 42398U 00055SS  25284.30661194  .00003089  00000-0  15896-2 0  9998
2 42398  98.6578 291.3023 0030155 222.4050 137.4793 14.15705732493904
Epoch: 2025-10-11T07:21Z
TLE epoch observation values (Epoch: 2025-10-11T07:21:31.271Z)
Latitude
-0.00011°
Longitude
160.78204°
Altitude
858.898 km
Speed
7.415 km/s
True Right ascension
19h 25m 12s
True Declination
0° 00' 00"
Sunlit
Object was in daylight at epoch
Visualization orbit readout
Latitude
Unknown
Longitude
Unknown
Altitude
Unknown
Speed
Unknown
Apparent Right ascension
Unknown
Apparent Declination
Unknown
Sunlit
N/A
Visualization observer readout
Local Sidereal Time
20:39:01
Azimuth
Unknown
Elevation
Unknown
Doppler factor
Unknown
Orbital elements
Apogee altitude
858.832 km
Perigee altitude
815.317 km
Semi-major axis
7,215.211 km
Eccentricity
0.00302
Inclination
98.6578°
RAAN
291.3023°
Arg. of periapsis
222.405°
True anomaly
137.7122°
Mean anomaly
137.4793°
Eccentric anomaly
137.59581°
Mean motion
3.54136 °/min
Orbital period
101.66 mins
BSTAR
0.0015896
Loading maneuver chart data...
Computing Atmospheric mass density...

Documentation

Showing up to 5 results
|